Welcome to mirrors.dotsrc.org

All our mirrors of open source software are available via http, https, ftp and an onion service. More information about our mirrors including statistics and contact information is available on our mirror info pages.

For information about dotsrc.org and our other services please go to our website.

Index of /mirrors/mirrors/ubuntu/pool/universe/k/

File Name  ↓ File Size  ↓ Date  ↓ 
Parent directory/--
ko.tex-extra-hlfont/-2007-11-09 19:03:46
ko.tex-unfonts/-2012-05-02 03:34:28
kedpm/-2012-12-01 05:33:51
kde-artwork-active/-2013-09-20 18:22:41
kayali/-2014-01-26 22:28:25
kingston-update-notifier/-2014-02-19 03:28:51
kosd/-2015-04-26 18:03:16
keepnote/-2015-04-27 15:59:35
kubuntu-patched-l10n/-2015-04-28 18:02:34
key-mon/-2015-04-28 18:02:40
kanla/-2015-04-28 18:02:53
klone/-2015-04-30 13:20:29
kde-l10n-tg/-2015-05-03 08:25:58
kde-l10n-th/-2015-05-03 08:25:58
kde-l10n-vi/-2015-05-03 08:25:58
kyototycoon/-2015-12-04 16:07:43
kcm-qt-graphicssystem/-2015-12-05 01:02:13
kdesudo/-2015-12-05 01:02:14
kpartsplugin/-2015-12-05 01:02:23
kdnssd/-2015-12-05 18:15:41
kscope/-2015-12-12 10:44:31
kwallet/-2015-12-13 18:14:27
konsole4/-2015-12-24 09:05:02
kopete-message-indicator/-2016-01-15 13:04:02
kte-collaborative/-2016-01-16 06:21:17
kimchi/-2016-01-17 23:14:14
kabikaboo/-2016-03-10 12:27:48
kon2/-2016-10-31 18:28:58
kde-l10n-si/-2016-10-31 18:28:59
kaa-imlib2/-2016-11-01 01:04:37
kwin-style-dekorator/-2016-11-01 01:14:45
kopete-plugin-thinklight/-2016-11-01 01:14:46
kiki/-2016-11-01 01:14:49
kitsune/-2016-11-01 01:14:49
kdm-gdmcompat/-2016-11-01 01:14:54
kde-style-skulpture/-2016-11-01 01:14:58
kde-style-polyester/-2016-11-01 01:14:58
kalternatives/-2016-11-01 01:14:59
kaa-base/-2016-11-01 08:04:23
kaa-metadata/-2016-11-01 08:04:23
kwwidgets/-2016-11-01 08:15:32
ksplice/-2016-11-01 08:15:39
kolabadmin/-2016-11-01 08:15:40
kio-ftps/-2016-11-01 08:15:43
kepas/-2016-11-01 08:15:43
kiconedit/-2016-11-01 08:15:43
kgmailnotifier/-2016-11-01 08:15:43
kgrab/-2016-11-01 08:15:43
kftpgrabber/-2016-11-01 08:15:43
kcoloredit/-2016-11-01 08:15:44
kde-thumbnailer-openoffice/-2016-11-01 08:15:44
katoob/-2016-11-01 08:15:45
knowledgeroot/-2016-11-01 13:24:10
kopete-cryptography/-2016-11-02 07:23:17
kdesrc-build/-2016-11-02 12:35:09
kwin-style-crystal/-2016-11-03 13:08:56
kcometen4/-2016-11-03 13:09:02
ktux/-2016-11-03 19:02:45
kde-workspace/-2016-11-04 01:18:51
kdevelop-php-docs/-2017-02-21 00:19:32
kimwitu++/-2017-04-06 06:44:18
klibc/-2017-06-28 18:14:48
ksnapshot/-2018-01-19 09:26:36
knemo/-2018-01-19 09:26:39
kio-mtp/-2018-01-19 09:26:41
khronos-opengl-man4/-2018-01-19 09:26:43
kde-style-qtcurve/-2018-01-19 09:26:49
kde-wallpapers/-2018-01-19 09:26:49
kcm-touchpad/-2018-01-19 09:26:51
kde-base-artwork/-2018-01-19 09:26:51
kaya/-2018-01-19 09:26:52
kaptain/-2018-01-19 09:26:52
kumofs/-2018-01-22 08:50:38
korundum/-2018-01-22 08:50:40
kmess/-2018-01-22 08:50:42
kmer-tools/-2018-01-22 08:50:42
kgamma/-2018-01-22 08:50:44
kdev-python/-2018-01-22 08:50:48
kdesdk-strigi-analyzers/-2018-01-22 08:50:48
kdenetwork-strigi-analyzers/-2018-01-22 08:50:49
kdegraphics-strigi-analyzer/-2018-01-22 08:50:52
kdeconnect-plasma/-2018-01-22 08:50:52
kcm-grub2/-2018-01-22 08:50:54
kryo-serializers/-2018-01-23 09:06:42
komparator/-2018-01-23 09:06:51
kdepim4/-2018-01-23 09:06:53
knutclient/-2018-01-23 09:06:53
kmidimon/-2018-01-23 09:06:54
kimwitu/-2018-01-23 09:07:01
kffmpegthumbnailer/-2018-01-23 09:07:10
kadu-mime-tex/-2018-01-23 09:07:43
kontrolpack/-2018-02-06 14:04:52
kamerka/-2018-04-04 09:00:34
kfritz/-2018-04-04 11:25:43
kmldonkey/-2018-04-04 11:25:44
kgraphviewer/-2018-04-04 11:25:51
kredentials/-2018-04-04 21:24:06
kprinter4/-2018-04-04 21:24:10
killer/-2018-06-08 23:18:18
kubuntu-docs/-2018-06-14 00:14:57
kdbg/-2018-06-22 15:13:14
kde-baseapps/-2018-06-22 15:13:14
kdepim/-2018-06-22 15:13:23
kubernetes/-2018-09-05 19:53:18
kterm/-2018-10-10 00:20:24
krecipes/-2019-08-21 00:39:39
kdepimlibs/-2019-08-29 00:17:44
kactivities/-2019-08-29 00:17:44
kqoauth/-2019-09-04 18:59:50
krank/-2019-10-25 22:37:58
ktap/-2019-11-22 12:13:28
kid/-2019-12-17 13:15:55
kernel-package/-2019-12-26 05:18:38
kimwitu-doc/-2020-01-03 00:24:42
kgb/-2020-03-22 20:30:05
ketchup/-2020-03-27 18:33:15
keylaunch/-2020-04-02 18:09:05
kerneltop/-2020-04-02 18:09:05
kbdd/-2020-04-03 06:13:45
keytouch-editor/-2020-04-03 06:13:51
ksh93/-2020-04-03 10:43:29
keyboardcast/-2020-04-05 00:13:27
komi/-2020-04-06 01:08:25
kubuntu-debug-installer/-2020-04-07 06:01:03
kubuntu-driver-manager/-2020-04-07 18:33:24
keras-applications/-2020-04-27 21:14:02
keras-preprocessing/-2020-04-27 21:14:02
kwstyle/-2020-05-22 05:23:29
kball/-2020-05-31 06:38:56
kuser/-2020-07-10 21:52:13
kvpm/-2020-07-10 21:52:13
kscd/-2020-07-10 21:52:13
ksaneplugin/-2020-07-10 21:52:13
kppp/-2020-07-10 21:52:13
kirigami/-2020-07-10 21:52:14
klinkstatus/-2020-07-10 21:52:14
klein/-2020-07-10 21:52:14
kfilereplace/-2020-07-10 21:52:15
kdevplatform/-2020-07-10 21:52:16
kdewebdev/-2020-07-10 21:52:16
kate4/-2020-07-10 21:52:16
kdeartwork/-2020-07-10 21:52:16
kde4pimlibs/-2020-07-10 21:52:16
kashmir/-2020-07-10 21:52:16
kaccessible/-2020-07-10 21:52:16
kremotecontrol/-2020-07-10 21:52:16
kvpnc/-2020-07-14 14:44:37
kover/-2020-07-14 14:44:37
kradio4/-2020-07-14 14:44:37
kfilemetadata/-2020-07-14 14:44:38
kde-l10n-lt/-2020-07-14 14:44:39
kde-l10n-km/-2020-07-14 14:44:39
kde-l10n-ar/-2020-07-14 14:44:39
kde-l10n-fa/-2020-07-14 14:44:39
kde-l10n-he/-2020-07-14 14:44:39
kde-l10n-cs/-2020-07-14 14:44:39
kde-l10n-ia/-2020-07-14 14:44:39
kde-l10n-nl/-2020-07-14 14:44:39
kde-runtime/-2020-07-14 14:44:39
kde-l10n-fr/-2020-07-14 14:44:39
kde-l10n-nds/-2020-07-14 14:44:39
kde-l10n-bg/-2020-07-14 14:44:39
kde-l10n-bs/-2020-07-14 14:44:39
kde-l10n-et/-2020-07-14 14:44:39
kde-l10n-pa/-2020-07-14 14:44:39
kde-l10n-hr/-2020-07-14 14:44:39
kde-l10n-ga/-2020-07-14 14:44:39
kde-l10n-nb/-2020-07-14 14:44:39
kde-l10n-ug/-2020-07-14 14:44:39
kde4libs/-2020-07-14 14:44:39
kde-l10n-gl/-2020-07-14 14:44:39
karlyriceditor/-2020-07-14 14:44:39
kde-l10n-hu/-2020-07-14 14:44:39
kde-l10n-es/-2020-07-14 14:44:39
kde-l10n-wa/-2020-07-14 14:44:39
kde-l10n-pl/-2020-07-14 14:44:39
kde-l10n-hi/-2020-07-14 14:44:39
kde-l10n-sr/-2020-07-14 14:44:39
kde-l10n-sl/-2020-07-14 14:44:39
kde-l10n-eo/-2020-07-14 14:44:39
kde-l10n-kk/-2020-07-14 14:44:39
kde-l10n-it/-2020-07-14 14:44:39
kde-l10n-ro/-2020-07-14 14:44:39
kde-l10n-ca/-2020-07-14 14:44:39
kde-l10n-da/-2020-07-14 14:44:39
kde-l10n-is/-2020-07-14 14:44:39
kde-l10n-sk/-2020-07-14 14:44:39
kde-l10n-tr/-2020-07-14 14:44:39
kde-l10n-ast/-2020-07-14 14:44:39
kde-l10n-zhcn/-2020-07-14 14:44:39
kde-l10n-el/-2020-07-14 14:44:39
kde-l10n-uk/-2020-07-14 14:44:39
kde-l10n-nn/-2020-07-14 14:44:39
kde-l10n-mr/-2020-07-14 14:44:39
kde-l10n-ja/-2020-07-14 14:44:39
kde-l10n-de/-2020-07-14 14:44:39
kde-l10n-id/-2020-07-14 14:44:39
kde-l10n-zhtw/-2020-07-14 14:44:39
kde-l10n-ru/-2020-07-14 14:44:39
kde-l10n-ko/-2020-07-14 14:44:39
kde-l10n-engb/-2020-07-14 14:44:39
kde-l10n-pt/-2020-07-14 14:44:39
kde-l10n-lv/-2020-07-14 14:44:39
kde-l10n-eu/-2020-07-14 14:44:39
kde-l10n-ca-valencia/-2020-07-14 14:44:39
kde-l10n-sv/-2020-07-14 14:44:39
kde-l10n-fi/-2020-07-14 14:44:39
kde-l10n-ptbr/-2020-07-14 14:44:39
kombu/-2020-07-14 18:16:44
kproperty/-2020-07-23 11:58:54
kstore/-2020-08-12 19:54:11
ksmtuned/-2020-08-19 23:59:36
kwalify/-2020-11-10 11:28:48
kreport/-2020-11-28 06:15:12
keybinder/-2020-12-13 18:05:33
keybinder-3.0/-2020-12-13 18:05:34
kcc/-2020-12-20 11:39:39
kxml2/-2020-12-28 05:24:58
knopflerfish-osgi/-2020-12-28 17:50:13
kxl/-2020-12-29 23:34:32
kytos-sphinx-theme/-2020-12-29 23:34:40
kubuntu-notification-helper/-2020-12-29 23:34:40
kopano-webapp/-2020-12-29 23:34:41
klavaro/-2020-12-29 23:34:41
keysync/-2020-12-29 23:34:41
knowthelist/-2020-12-29 23:34:41
kido/-2020-12-29 23:34:41
keyringer/-2020-12-29 23:34:41
khmerconverter/-2020-12-29 23:34:41
ktp-legacy-presence-applet/-2020-12-29 23:34:41
kronosnet/-2020-12-29 23:34:41
koji/-2020-12-29 23:34:41
kismet/-2020-12-29 23:34:41
kiki-the-nano-bot/-2020-12-29 23:34:41
kmodpy/-2020-12-29 23:34:41
kodiplatform/-2020-12-29 23:34:41
knocker/-2020-12-29 23:34:41
kde-config-systemd/-2020-12-29 23:34:41
kcov/-2020-12-29 23:34:41
kobodeluxe/-2020-12-29 23:34:41
kadu/-2020-12-29 23:34:42
k3d/-2020-12-29 23:34:42
klatexformula/-2021-01-01 12:14:14
kakasi/-2021-01-03 18:04:57
keepass2-plugin-keepasshttp/-2021-01-03 23:43:25
kmscube/-2021-01-04 00:28:49
kio-gopher/-2021-01-04 00:28:53
keyboards-rg/-2021-01-05 17:41:00
kindleclip/-2021-01-06 05:40:42
kdgcommons-java/-2021-01-07 23:53:35
ketm/-2021-01-10 06:20:25
khronos-opencl-man/-2021-01-14 23:29:34
keynav/-2021-01-18 05:53:47
kile/-2021-01-20 19:14:38
kwalletcli/-2021-01-25 23:44:11
kthresher/-2021-02-05 18:14:00
kboot-utils/-2021-02-18 06:15:27
kdrill/-2021-10-21 17:04:06
keurocalc/-2021-10-28 12:19:32
kmod/-2021-12-23 06:20:50
keymapper/-2021-12-26 05:29:15
kickoff/-2022-04-30 15:59:28
kdocker/-2022-05-05 23:49:42
kcheckers/-2022-05-28 00:04:03
kanboard-cli/-2022-05-28 06:20:14
krop/-2022-07-23 08:03:39
keepass2/-2022-07-23 08:03:40
kdiagram/-2022-07-23 08:03:40
kblog/-2022-07-23 08:03:41
kazocsaba-imageviewer/-2022-07-23 08:03:41
kgx/-2022-07-24 01:06:02
kuvert/-2022-07-24 03:42:29
kylin-scanner/-2022-07-24 03:42:29
ktikz/-2022-07-24 03:42:29
ksysguard/-2022-07-24 03:42:29
kunststoff/-2022-07-24 03:42:29
kylin-nm/-2022-07-24 03:42:29
ksh/-2022-07-24 03:42:29
konwert/-2022-07-24 03:42:29
kore/-2022-07-24 03:42:29
kstart/-2022-07-24 03:42:29
kgames/-2022-07-24 03:42:30
kdsoap/-2022-07-24 03:42:30
klustakwik/-2022-07-24 03:42:30
king-probe/-2022-07-24 03:42:30
knockd/-2022-07-24 03:42:30
knowl.js/-2022-07-24 03:42:30
kino/-2022-07-24 03:42:30
keyman-config/-2022-07-24 03:42:30
kf5-kdepim-apps-libs/-2022-07-24 03:42:30
kerneloops/-2022-07-24 03:42:30
keyman-keyboardprocessor/-2022-07-24 03:42:30
katarakt/-2022-07-24 03:42:31
kcolorpicker/-2022-07-24 03:42:31
kannel-sqlbox/-2022-07-24 03:42:31
kalarmcal/-2022-07-24 03:42:31
kconfig-frontends/-2022-07-24 03:42:31
kanif/-2022-07-28 23:30:05
kylin-greeter/-2022-08-09 00:34:19
kluppe/-2022-08-09 23:48:55
kcm-fcitx5/-2022-08-16 06:38:24
kconfiglib/-2022-08-17 05:39:45
kylin-burner/-2022-08-17 06:34:04
kwayland-server/-2022-08-23 00:41:18
kanjidic/-2022-08-23 17:44:42
kelbt/-2022-08-25 23:54:34
kronometer/-2022-11-05 13:18:47
kup/-2022-11-06 04:03:28
khronos-api/-2022-11-06 04:03:35
key-chord-el/-2022-11-06 04:03:39
kali/-2022-11-06 15:49:24
kim-api/-2022-11-06 16:09:26
krb5-auth-dialog/-2022-11-06 16:55:38
kytos-utils/-2022-11-12 23:24:30
kraken/-2022-11-20 00:36:04
kissfft/-2022-11-21 00:27:11
ktimetracker/-2022-11-22 10:43:58
krusader/-2022-11-26 06:33:03
kanjipad/-2022-11-29 00:37:25
kazam/-2022-11-30 05:44:52
kyua/-2022-11-30 06:35:16
kubuntu-wallpapers/-2022-12-07 21:09:19
kshutdown/-2022-12-10 02:54:05
koules/-2022-12-13 12:40:58
krb5-sync/-2022-12-15 20:49:38
konclude/-2022-12-23 05:19:12
keepassx/-2022-12-27 23:29:20
kvmtool/-2022-12-31 06:34:18
kytea/-2022-12-31 06:34:18
kpeoplevcard/-2023-01-01 17:54:03
kdesvn/-2023-01-01 18:34:19
keychain/-2023-01-07 05:59:39
kdevelop-pg-qt/-2023-01-15 00:32:57
kexi/-2023-01-18 16:59:05
kst/-2023-01-24 13:37:48
knockpy/-2023-01-26 12:36:24
ktx/-2023-01-28 18:33:22
kookbook/-2023-01-30 11:45:27
keras/-2023-01-31 18:32:37
kafs-client/-2023-02-07 18:33:15
kylin-display-switch/-2023-02-08 15:39:22
kcm-fcitx/-2023-02-10 00:08:59
kworkflow/-2023-02-11 23:34:51
kanjidraw/-2023-02-18 23:34:21
kotlinx-coroutines/-2023-04-02 06:35:36
kotlinx-atomicfu/-2023-04-02 06:35:36
kpatch/-2023-04-11 00:34:37
kbuild/-2023-04-21 12:26:41
kernel-handbook/-2023-05-09 05:29:01
knitpy/-2023-05-16 17:29:24
kanboard/-2023-05-16 18:15:38
kaffeine/-2023-05-20 04:44:12
kyotocabinet/-2023-06-13 06:10:57
kimageannotator/-2023-06-14 00:05:19
ktechlab/-2023-06-14 00:28:51
ksnip/-2023-06-15 07:04:47
k4dirstat/-2023-06-21 12:21:39
kanyremote/-2023-07-17 01:14:41
kexec-tools/-2023-07-19 10:34:25
kernsmooth/-2023-07-21 00:32:18
komposter/-2023-07-25 08:50:27
kchmviewer/-2023-07-27 12:42:01
ktls-utils/-2023-07-28 12:29:40
knack/-2023-07-30 17:45:02
kseexpr/-2023-07-31 00:26:44
kmerresistance/-2023-08-04 03:38:57
kazoo/-2023-08-11 17:14:13
kxd/-2023-08-25 10:04:15
kjots/-2023-08-28 12:37:27
king/-2023-10-26 22:13:07
konfont/-2023-10-26 22:13:20
kmfl-keyboards-mywin/-2023-10-26 22:13:21
klaus/-2023-10-26 22:13:26
keyrings.alt/-2023-10-26 22:13:28
kiwix-zim-updater/-2023-10-27 00:59:04
kristall/-2023-10-28 06:50:37
kokkos/-2023-10-28 13:56:43
klick/-2023-10-28 13:56:44
kodi-game-libretro/-2023-10-28 13:56:44
klystrack/-2023-10-28 13:56:44
kanatest/-2023-10-28 13:56:45
kmplayer/-2023-10-28 15:21:15
kasumi/-2023-10-28 20:40:13
kiwisolver/-2023-10-31 19:51:11
kquickimageeditor/-2023-11-03 17:51:20
kuserfeedback/-2023-11-09 18:38:36
kafkacat/-2023-11-14 00:40:35
krename/-2023-11-20 08:45:41
kubetail/-2023-11-21 05:35:48
kphotoalbum/-2023-11-27 12:35:46
kraken2/-2023-11-28 23:54:36
kernel-wedge/-2023-12-08 05:07:24
kio-fuse/-2023-12-12 14:02:22
knews/-2023-12-27 00:07:07
kgeotag/-2024-01-03 19:20:29
keepassxc/-2024-01-04 18:54:56
kraptor/-2024-01-05 05:45:17
kalk/-2024-01-06 01:00:36
kclock/-2024-01-06 01:00:36
keystone-tempest-plugin/-2024-01-10 19:14:21
kdc2tiff/-2024-01-10 19:14:21
kallisto/-2024-01-10 19:14:21
kotlin-mode/-2024-01-10 19:14:21
kmflcomp/-2024-01-10 19:14:21
kalign/-2024-01-10 19:14:21
kopanocore/-2024-01-10 19:14:21
kinput2/-2024-01-11 01:10:42
kissplice/-2024-01-11 01:10:42
kaptive/-2024-01-11 01:10:42
karabo-bridge/-2024-01-11 01:10:42
kubuntu-settings/-2024-01-11 01:10:42
kephra/-2024-01-11 01:10:42
kup-backup/-2024-01-11 01:10:42
kbtin/-2024-01-11 01:10:42
kmscon/-2024-01-11 01:10:42
kitchen/-2024-01-11 01:10:42
khronos-opencl-headers/-2024-01-11 01:10:42
kstars/-2024-01-11 01:10:42
kernelshark/-2024-01-11 01:10:42
kdb/-2024-01-11 01:10:42
kakoune/-2024-01-11 01:10:42
kodi-audioencoder-lame/-2024-01-11 07:31:04
kodi-inputstream-rtmp/-2024-01-11 07:31:04
kodi-pvr-dvbviewer/-2024-01-11 07:31:04
kodi-visualization-waveform/-2024-01-11 07:31:04
kpcli/-2024-01-11 07:31:04
kodi-audioencoder-wav/-2024-01-11 07:31:04
kodi-audioencoder-flac/-2024-01-11 07:31:04
kodi-visualization-fishbmc/-2024-01-11 07:31:04
kodi-peripheral-xarcade/-2024-01-11 07:31:04
kodi-audioencoder-vorbis/-2024-01-11 07:31:04
kodi-pvr-pctv/-2024-01-11 07:31:04
kodi-screensaver-pyro/-2024-01-11 07:31:04
kodi-pvr-mediaportal-tvserver/-2024-01-11 07:31:04
kodi-audiodecoder-fluidsynth/-2024-01-11 07:31:04
kodi-visualization-spectrum/-2024-01-11 07:31:04
kodi-pvr-filmon/-2024-01-11 07:31:04
kas/-2024-01-11 07:31:04
kodi-pvr-wmc/-2024-01-11 07:31:04
kiwix-tools/-2024-01-11 07:31:04
kodi-imagedecoder-raw/-2024-01-11 07:31:04
kodi-pvr-argustv/-2024-01-11 07:31:04
kodi-visualization-pictureit/-2024-01-11 07:31:04
kodi-pvr-hdhomerun/-2024-01-11 07:31:04
kodi-screensaver-biogenesis/-2024-01-11 07:31:04
kodi-audiodecoder-openmpt/-2024-01-11 07:31:04
kid3/-2024-01-11 07:31:04
kodi-visualization-shadertoy/-2024-01-11 07:31:04
knxd/-2024-01-11 07:31:04
kiwix/-2024-01-11 07:31:04
kodi-inputstream-ffmpegdirect/-2024-01-11 07:31:04
kodi-audiodecoder-sidplay/-2024-01-11 07:31:04
kodi-pvr-njoy/-2024-01-11 07:31:04
kodi-pvr-octonet/-2024-01-11 07:31:04
kodi-pvr-stalker/-2024-01-11 07:31:04
ktp-kded-integration-module/-2024-01-11 13:23:30
ktp-contact-runner/-2024-01-11 13:23:30
ktp-accounts-kcm/-2024-01-11 13:23:30
ktp-send-file/-2024-01-11 13:23:30
ktp-text-ui/-2024-01-11 13:23:30
kylin-video/-2024-01-11 13:23:30
ktp-desktop-applets/-2024-01-11 13:23:30
ktp-filetransfer-handler/-2024-01-11 13:23:30
ktp-approver/-2024-01-11 13:23:30
ktp-contact-list/-2024-01-11 13:23:30
ktp-common-internals/-2024-01-11 13:23:30
ktp-call-ui/-2024-01-11 13:23:30
ktp-auth-handler/-2024-01-11 13:23:30
kraft/-2024-01-11 13:23:31
kfloppy/-2024-01-11 13:23:33
kalendar/-2024-01-11 13:23:36
kickpass/-2024-01-11 19:18:30
ktextaddons/-2024-01-12 08:15:09
kwallet-pam/-2024-01-13 01:09:13
kgamma5/-2024-01-13 01:09:13
kdiff3/-2024-01-13 01:09:13
kcollectd/-2024-01-13 01:09:13
kiwi-boxed-plugin/-2024-01-13 01:09:13
kicad-templates/-2024-01-13 01:09:13
krb5-strength/-2024-01-13 01:09:13
kbibtex/-2024-01-13 01:09:13
kma/-2024-01-13 01:09:13
ktrip/-2024-01-13 07:20:57
kpublictransport/-2024-01-13 07:20:57
kongress/-2024-01-13 07:20:57
ksmbd-tools/-2024-01-13 07:20:57
kosmindoormap/-2024-01-13 07:20:57
kio-admin/-2024-01-13 07:20:58
kivy/-2024-01-13 07:20:58
khelpcenter/-2024-01-13 07:20:58
keditbookmarks/-2024-01-13 07:20:59
kgb-bot/-2024-01-13 07:20:59
krb5/-2024-01-13 13:13:36
kaidan/-2024-01-13 13:13:37
kasts/-2024-01-13 13:13:37
kdecoration/-2024-01-13 19:07:49
kdsingleapplication/-2024-01-14 01:04:05
klog/-2024-01-14 01:04:05
kwayland-integration/-2024-01-14 09:57:47
kmymoney/-2024-01-14 09:57:48
kirigami-addons/-2024-01-14 09:57:51
kmetronome/-2024-01-15 00:15:07
ksh93u+m/-2024-01-16 07:01:36
kawari8/-2024-01-19 21:47:43
kmer/-2024-01-19 22:25:47
kopeninghours/-2024-01-19 22:25:47
kineticstools/-2024-01-20 00:36:16
kvirc/-2024-01-21 12:49:43
khronos-opencl-clhpp/-2024-01-21 18:47:41
krita/-2024-01-23 00:53:09
kupfer/-2024-01-23 07:09:25
kubecolor/-2024-01-23 07:14:09
kubernetes-split-yaml/-2024-01-23 07:14:09
kappanhang/-2024-01-23 07:14:10
kcptun/-2024-01-23 07:14:10
kel-agent/-2024-01-23 07:14:10
kodi-pvr-dvblink/-2024-01-23 20:21:02
kodi-imagedecoder-heif/-2024-01-23 20:21:02
kdiskmark/-2024-01-24 17:41:07
knot/-2024-01-26 07:02:40
klepto/-2024-01-31 09:51:33
kotlin/-2024-02-01 07:31:19
kiwi/-2024-02-02 19:15:43
keepassxc-browser/-2024-02-03 07:02:55
kleborate/-2024-02-04 07:00:15
kylin-process-manager/-2024-02-06 19:20:16
kitchensink-clojure/-2024-02-15 13:37:54
khal/-2024-02-15 13:37:54
kamcli/-2024-02-15 13:38:02
k2pdfopt/-2024-02-15 19:28:15
koko/-2024-02-16 00:59:22
kodi-pvr-zattoo/-2024-02-16 02:38:14
kodi-pvr-vdr-vnsi/-2024-02-16 02:38:15
kodi-vfs-libarchive/-2024-02-16 02:38:15
kodi-inputstream-adaptive/-2024-02-16 02:38:15
kodi-screensaver-shadertoy/-2024-02-16 02:38:15
kodi-pvr-teleboy/-2024-02-16 02:38:15
kodi-pvr-mythtv/-2024-02-16 02:38:15
kodi-vfs-sftp/-2024-02-16 02:38:15
kodi-screensaver-asteroids/-2024-02-16 02:38:15
kodi-pvr-vuplus/-2024-02-16 02:38:15
kodi-pvr-waipu/-2024-02-16 02:38:16
kodi-screensaver-pingpong/-2024-02-16 02:38:16
kodi-pvr-vbox/-2024-02-16 02:38:16
kodi-pvr-hts/-2024-02-16 02:38:16
kodi-pvr-iptvsimple/-2024-02-16 02:38:16
kodi-peripheral-joystick/-2024-02-16 02:38:16
kodi-pvr-sledovanitv-cz/-2024-02-16 02:38:17
kodi-screensaver-greynetic/-2024-02-16 03:22:55
kildclient/-2024-02-16 07:06:15
kuttypy/-2024-02-16 18:58:08
kanshi/-2024-02-17 00:50:37
kew/-2024-02-17 00:50:37
kodi-pvr-nextpvr/-2024-02-17 06:54:19
kodi/-2024-02-17 12:44:08
knot-resolver/-2024-02-17 12:44:08
kfilemetadata-kf5/-2024-02-17 12:57:21
kwallet-kf5/-2024-02-17 17:12:13
kubuntu-web-shortcuts/-2024-02-17 19:15:30
kstars-data-extra-tycho2/-2024-02-17 19:15:31
kde-service-menu-fuseiso/-2024-02-17 19:15:31
kde-config-whoopsie/-2024-02-17 20:02:30
khard/-2024-02-18 00:46:47
ksyntax-highlighting/-2024-02-18 18:40:49
kdnssd-kf5/-2024-02-18 18:40:49
kcalcore/-2024-02-18 18:40:49
kxstitch/-2024-02-18 19:32:43
kitty/-2024-02-19 12:42:57
khmer/-2024-02-19 12:42:57
kmc/-2024-02-19 18:46:55
kannel/-2024-02-20 00:44:20
kactivities-kf5/-2024-02-20 00:44:20
kubectx/-2024-02-20 10:37:07
kunitconversion/-2024-02-21 00:49:49
kjsembed/-2024-02-21 00:49:49
kmediaplayer/-2024-02-21 00:49:49
knewstuff/-2024-02-21 00:49:49
kplotting/-2024-02-21 00:49:49
knotifyconfig/-2024-02-21 00:49:49
kxmlgui/-2024-02-21 00:49:49
kjs/-2024-02-21 00:49:49
kquickcharts/-2024-02-21 00:49:49
kservice/-2024-02-21 00:49:49
kwidgetsaddons/-2024-02-21 00:49:49
kwindowsystem/-2024-02-21 00:49:49
knotifications/-2024-02-21 00:49:49
kpty/-2024-02-21 00:49:49
ktexteditor/-2024-02-21 00:49:49
ktextwidgets/-2024-02-21 00:49:49
kpackage/-2024-02-21 00:49:49
kwayland/-2024-02-21 00:49:49
kross/-2024-02-21 00:49:49
kxmlrpcclient/-2024-02-21 00:49:49
kcmutils/-2024-02-21 00:49:50
ki18n/-2024-02-21 00:49:50
kcompletion/-2024-02-21 00:49:50
kimageformats/-2024-02-21 00:49:50
kemoticons/-2024-02-21 00:49:50
kdoctools/-2024-02-21 00:49:50
kcoreaddons/-2024-02-21 00:49:50
khtml/-2024-02-21 00:49:50
kbookmarks/-2024-02-21 00:49:50
kitemviews/-2024-02-21 00:49:50
kdesu/-2024-02-21 00:49:50
kidletime/-2024-02-21 00:49:50
kio/-2024-02-21 00:49:50
kdelibs4support/-2024-02-21 00:49:50
kapidox/-2024-02-21 00:49:50
kdesignerplugin/-2024-02-21 00:49:50
kactivities-stats/-2024-02-21 00:49:50
kcodecs/-2024-02-21 00:49:50
kiconthemes/-2024-02-21 00:49:50
kguiaddons/-2024-02-21 00:49:50
kauth/-2024-02-21 00:49:50
kcontacts/-2024-02-21 00:49:50
kcrash/-2024-02-21 00:49:50
kglobalaccel/-2024-02-21 00:49:50
kirigami2/-2024-02-21 00:49:50
kitemmodels/-2024-02-21 00:49:50
kjobwidgets/-2024-02-21 00:49:50
kinit/-2024-02-21 00:49:50
kholidays/-2024-02-21 00:49:50
karchive/-2024-02-21 00:49:50
kdewebkit/-2024-02-21 00:49:50
kdbusaddons/-2024-02-21 00:49:50
krunner/-2024-02-21 03:52:18
kconfig/-2024-02-21 06:55:53
kdav/-2024-02-21 12:51:15
kded/-2024-02-21 12:51:15
kconfigwidgets/-2024-02-21 12:51:15
kparts/-2024-02-21 12:51:15
kdeclarative/-2024-02-21 18:48:16
kamailio/-2024-02-21 18:48:17
klayout/-2024-02-22 00:47:14
kpeople/-2024-02-22 06:54:50
kwin/-2024-02-22 18:49:38
ksshaskpass/-2024-02-22 18:49:38
kscreenlocker/-2024-02-22 18:49:38
ksystemstats/-2024-02-22 18:49:38
kwrited/-2024-02-22 18:49:38
kde-cli-tools/-2024-02-22 18:49:39
kactivitymanagerd/-2024-02-22 18:49:39
kscreen/-2024-02-22 18:49:39
kinfocenter/-2024-02-22 18:49:39
kdeplasma-addons/-2024-02-22 18:49:39
khotkeys/-2024-02-22 18:49:39
kmenuedit/-2024-02-22 18:49:39
kde-gtk-config/-2024-02-22 18:49:39
kamoso/-2024-02-22 19:29:05
kate/-2024-02-22 20:14:14
kalzium/-2024-02-22 20:14:16
kalgebra/-2024-02-22 20:14:20
kturtle/-2024-02-22 22:19:27
kdenlive/-2024-02-22 22:19:27
konversation/-2024-02-22 22:19:28
konsole/-2024-02-22 22:19:29
kubuntu-installer-prompt/-2024-02-23 00:50:29
kpipewire/-2024-02-23 00:50:29
knights/-2024-02-23 01:03:33
knavalbattle/-2024-02-23 01:03:34
kollision/-2024-02-23 01:03:34
knetwalk/-2024-02-23 01:03:34
konquest/-2024-02-23 01:03:34
kolf/-2024-02-23 01:03:34
klines/-2024-02-23 01:03:35
kblocks/-2024-02-23 01:03:35
kfourinline/-2024-02-23 01:03:35
kgoldrunner/-2024-02-23 01:03:35
kanagram/-2024-02-23 01:03:35
kmahjongg/-2024-02-23 01:03:35
kmines/-2024-02-23 01:03:36
kbreakout/-2024-02-23 01:03:36
kbounce/-2024-02-23 01:03:36
kjumpingcube/-2024-02-23 01:03:36
killbots/-2024-02-23 01:03:36
kapman/-2024-02-23 01:03:36
kblackbox/-2024-02-23 01:03:36
kiriki/-2024-02-23 01:03:36
kigo/-2024-02-23 01:03:36
klickety/-2024-02-23 01:03:36
katomic/-2024-02-23 01:03:37
kdiamond/-2024-02-23 01:03:37
ktuberling/-2024-02-23 01:03:39
ksirk/-2024-02-23 01:03:39
kshisen/-2024-02-23 01:03:40
ksquares/-2024-02-23 01:03:40
kreversi/-2024-02-23 01:03:40
kspaceduel/-2024-02-23 01:03:40
kubrick/-2024-02-23 01:03:40
kpat/-2024-02-23 01:48:00
k3b/-2024-02-23 01:48:02
kget/-2024-02-23 01:48:02
kdevelop/-2024-02-23 08:44:59
ksudoku/-2024-02-23 09:28:18
ksnakeduel/-2024-02-23 09:28:20
kdevelop-python/-2024-02-23 10:58:18
kdevelop-php/-2024-02-23 10:58:18
kde-spectacle/-2024-02-23 13:13:38
kimap/-2024-02-23 13:13:38
kleopatra/-2024-02-23 13:58:15
kolourpaint/-2024-02-23 14:43:26
kgpg/-2024-02-23 14:43:27
kf5-messagelib/-2024-02-23 15:28:23
knotes/-2024-02-23 17:53:27
kalarm/-2024-02-23 19:17:35
kmail-account-wizard/-2024-02-23 19:17:36
kdepim-runtime/-2024-02-23 19:58:56
keyman/-2024-02-23 23:33:15
kwartz-client/-2024-02-24 00:25:10
kcalc/-2024-02-24 00:59:59
kmix/-2024-02-24 00:59:59
kmime/-2024-02-24 00:59:59
kpmcore/-2024-02-24 00:59:59
kamera/-2024-02-24 00:59:59
kde-dev-scripts/-2024-02-24 00:59:59
kmplot/-2024-02-24 00:59:59
kdeedu-data/-2024-02-24 00:59:59
konqueror/-2024-02-24 00:59:59
ktimer/-2024-02-24 00:59:59
kwalletmanager/-2024-02-24 00:59:59
kdegraphics-mobipocket/-2024-02-24 00:59:59
kaccounts-integration/-2024-02-24 00:59:59
kdeconnect/-2024-02-24 00:59:59
kdenetwork-filesharing/-2024-02-24 00:59:59
krfb/-2024-02-24 00:59:59
kcharselect/-2024-02-24 00:59:59
kbackup/-2024-02-24 00:59:59
kde-dev-utils/-2024-02-24 00:59:59
kcron/-2024-02-24 00:59:59
kdesdk-thumbnailers/-2024-02-24 00:59:59
krdc/-2024-02-24 00:59:59
kpkpass/-2024-02-24 00:59:59
kmouth/-2024-02-24 00:59:59
kcolorchooser/-2024-02-24 00:59:59
kruler/-2024-02-24 00:59:59
klettres/-2024-02-24 00:59:59
kfind/-2024-02-24 00:59:59
kdialog/-2024-02-24 00:59:59
kqtquickcharts/-2024-02-24 00:59:59
kig/-2024-02-24 00:59:59
kapptemplate/-2024-02-24 00:59:59
kdf/-2024-02-24 00:59:59
kmag/-2024-02-24 00:59:59
kdesdk-kioslaves/-2024-02-24 00:59:59
kmousetool/-2024-02-24 00:59:59
kiten/-2024-02-24 00:59:59
kontrast/-2024-02-24 00:59:59
kgeography/-2024-02-24 00:59:59
kirigami-gallery/-2024-02-24 00:59:59
kcachegrind/-2024-02-24 00:59:59
kdebugsettings/-2024-02-24 00:59:59
kpimtextedit/-2024-02-24 00:59:59
kross-interpreters/-2024-02-24 00:59:59
kimagemapeditor/-2024-02-24 00:59:59
kontactinterface/-2024-02-24 00:59:59
kontact/-2024-02-24 01:17:54
kaddressbook/-2024-02-24 02:02:34
kmail/-2024-02-24 02:02:34
korganizer/-2024-02-24 02:47:37
kdepim-addons/-2024-02-24 04:23:35
kwave/-2024-02-24 07:03:04
kompare/-2024-02-24 07:03:04
kwordquiz/-2024-02-24 07:03:04
kldap/-2024-02-24 07:03:04
kmbox/-2024-02-24 07:03:04
ksmtp/-2024-02-24 07:03:04
kio-extras/-2024-02-24 07:03:05
kidentitymanagement/-2024-02-24 07:03:05
kipi-plugins/-2024-02-24 07:03:05
kitinerary/-2024-02-24 07:03:05
kdegraphics-thumbnailers/-2024-02-24 07:03:05
kcalutils/-2024-02-24 07:03:05
kio-gdrive/-2024-02-24 07:03:05
khangman/-2024-02-24 07:03:05
kaccounts-providers/-2024-02-24 07:03:05
kajongg/-2024-02-24 07:03:05
kbruch/-2024-02-24 07:03:05
kubuntu-meta/-2024-02-24 11:33:04
kicad-packages3d/-2024-02-24 12:12:39
kmailtransport/-2024-02-24 12:56:05
ktnef/-2024-02-24 12:56:05
ksanecore/-2024-02-24 12:56:05
ksystemlog/-2024-02-24 12:56:05
kteatime/-2024-02-24 12:56:05
kopete/-2024-02-24 12:56:05
ktouch/-2024-02-24 12:56:05
ktorrent/-2024-02-24 12:56:05
kicad/-2024-02-24 17:53:21
kicad-footprints/-2024-02-24 17:53:24
kicad-symbols/-2024-02-24 17:53:26